Weather History for San Sebastian, Spain

Change the Weather History Date:

Friday, January 18, 2013

  Actual Average Record
Temperature  
Mean Temperature 49 °F -  
Max Temperature 57 °F 53 °F 71 °F (2007)
Min Temperature 41 °F 41 °F 33 °F (2000)
Degree Days  
Heating Degree Days 16    
Moisture  
Dew Point 52 °F    
Average Humidity 93    
Maximum Humidity 100    
Minimum Humidity 82    
Precipitation  
Precipitation 0.00 in - - ()
Sea Level Pressure  
Sea Level Pressure 29.53 in    
Wind  
Wind Speed 4 mph ()    
Max Wind Speed 15 mph    
Max Gust Speed 26 mph    
Visibility 4.5 miles    
Events Rain    
Averages and records for this station are not official NWS values.
T = Trace of Precipitation, MM = Missing Value Source: Averaged Metar Reports

Daily Weather History Graph

Daily Weather History Graph

Search for Another Location

Airport:

Trip Planner

Search our weather history database for the weather conditions in past years. The results will help you decide how hot, cold, wet, or windy it might be!

Date:

Astronomy

Jan. 18, 2013 Rise Set
Actual Time 8:34 AM CET 6:00 PM CET
Civil Twilight 8:03 AM CET 6:32 PM CET
Nautical Twilight 7:28 AM CET 7:07 PM CET
Astronomical Twilight 6:54 AM CET 7:41 PM CET
Moon 11:51 AM CET (1/18) 12:49 AM CET (1/18)
Length of Visible Light 10h 28m
Length of Day
9h 25m
Waxing Crescent, 45% of the Moon is Illuminated
Jan 18
Waxing Crescent
Jan 19
First Quarter
Jan 27
Full
Feb 3
Last Quarter
Feb 10
New

Hourly Weather History & Observations

Time (CET) Temp. Windchill Dew Point Humidity Pressure Visibility Wind Dir Wind Speed Gust Speed Precip Events Conditions
5:30 AM 41.0 °F - 41.0 °F 100% 29.68 in 1.6 mi Variable 2.3 mph - N/A Rain Light Rain
6:00 AM 42.8 °F - 41.0 °F 93% 29.68 in 1.6 mi Calm Calm - N/A Rain Light Rain
6:30 AM 46.4 °F 45.2 °F 46.4 °F 100% 29.65 in 4.3 mi SSW 3.5 mph - N/A   Light Drizzle
7:00 AM 53.6 °F - 51.8 °F 94% 29.65 in 6.2 mi Variable 6.9 mph - N/A   Overcast
7:30 AM 55.4 °F - 53.6 °F 94% 29.65 in 4.3 mi Variable 5.8 mph 20.7 mph N/A   Light Drizzle
8:00 AM 55.4 °F - 53.6 °F 94% 29.65 in 1.6 mi Variable 4.6 mph 19.6 mph N/A Rain Light Rain
8:30 AM 55.4 °F - 53.6 °F 94% 29.65 in 1.2 mi Variable 2.3 mph 16.1 mph N/A Rain Rain
9:00 AM 55.4 °F - 53.6 °F 94% 29.65 in 1.2 mi Variable 3.5 mph - N/A Rain Light Rain
9:30 AM 55.4 °F - 53.6 °F 94% 29.65 in 6.2 mi Variable 10.4 mph 23.0 mph N/A   Overcast
10:00 AM 55.4 °F - 53.6 °F 94% 29.65 in 6.2 mi SW 8.1 mph 20.7 mph N/A   Overcast
10:30 AM 55.4 °F - 53.6 °F 94% 29.65 in 6.2 mi SW 12.7 mph - N/A Rain Light Rain
11:00 AM 55.4 °F - 53.6 °F 94% 29.65 in 3.7 mi SW 4.6 mph - N/A Rain Light Rain
11:30 AM 55.4 °F - 53.6 °F 94% 29.65 in 3.7 mi SW 4.6 mph - N/A Rain Light Rain
12:00 PM 55.4 °F - 53.6 °F 94% 29.62 in 6.2 mi SW 5.8 mph - N/A   Mostly Cloudy
12:30 PM 55.4 °F - 53.6 °F 94% 29.59 in 4.3 mi SW 5.8 mph - N/A Rain Light Rain
1:00 PM 55.4 °F - 53.6 °F 94% 29.59 in 4.3 mi SSW 9.2 mph - N/A Rain Light Rain
1:30 PM 55.4 °F - 55.4 °F 100% 29.53 in 6.2 mi South 4.6 mph - N/A   Mostly Cloudy
2:00 PM 55.4 °F - 53.6 °F 94% 29.50 in 6.2 mi South 3.5 mph - N/A   Mostly Cloudy
2:30 PM 57.2 °F - 53.6 °F 88% 29.50 in 6.2 mi Calm Calm - N/A Rain Light Rain
3:00 PM 55.4 °F - 51.8 °F 88% 29.47 in 6.2 mi SE 4.6 mph - N/A Rain Light Rain
3:30 PM 55.4 °F - 51.8 °F 88% 29.44 in 6.2 mi SE 3.5 mph - N/A Rain Light Rain
4:00 PM 55.4 °F - 50.0 °F 82% 29.42 in 6.2 mi SE 6.9 mph - N/A Rain Light Rain
4:30 PM 55.4 °F - 51.8 °F 88% 29.39 in 6.2 mi Variable 2.3 mph - N/A   Mostly Cloudy
5:00 PM 55.4 °F - 51.8 °F 88% 29.36 in 6.2 mi Calm Calm - N/A   Mostly Cloudy
5:30 PM 55.4 °F - 51.8 °F 88% 29.33 in 6.2 mi Variable 2.3 mph - N/A   Mostly Cloudy
6:00 PM 55.4 °F - 53.6 °F 94% 29.33 in 6.2 mi Variable 2.3 mph - N/A   Mostly Cloudy
6:30 PM 57.2 °F - 53.6 °F 88% 29.33 in 6.2 mi SW 6.9 mph - N/A   Mostly Cloudy
7:00 PM 55.4 °F - 51.8 °F 88% 29.36 in 3.1 mi NNW 12.7 mph 26.5 mph N/A Rain Light Rain
7:30 PM 53.6 °F - 51.8 °F 94% 29.42 in 2.5 mi NW 15.0 mph - N/A Rain Rain
8:00 PM 53.6 °F - 51.8 °F 94% 29.44 in 2.5 mi Variable 9.2 mph - N/A Rain Rain
8:30 PM 51.8 °F - 50.0 °F 94% 29.42 in 3.7 mi Variable 2.3 mph - N/A Rain Rain
9:00 PM 51.8 °F - 50.0 °F 94% 29.44 in 3.7 mi Calm Calm - N/A Rain Rain
9:30 PM 51.8 °F - 50.0 °F 94% 29.42 in 2.5 mi Variable 1.2 mph - N/A Rain Rain